Overview Statistics Trail Chart Weather Telemetry Raw packets
 

This is the latest recevied weather packets stored in our database for station/object MeshWX-1. If no packets are shown the sender has not sent any weather packets the latest 10 day(s).

<< 28 29 30 31 32 33 34 >>
Time Temp. Humidity Pressure Rain* Wind** Luminosity Snow
1787962426 17.78° C 63% 1002.1 hPa - - - -
1787962300 17.78° C 63% 1002.1 hPa - - - -
1787960325 18.33° C 63% 1002.1 hPa - - - -
1787960233 18.33° C 63% 1002.1 hPa - - - -
1787958225 18.33° C 63% 1002.2 hPa - - - -
1787958178 18.33° C 63% 1002.2 hPa - - - -
1787956125 18.89° C 64% 1002.5 hPa - - - -
1787954033 18.89° C 64% 1002.5 hPa - - - -
1787953965 19.44° C 64% 1002.5 hPa - - - -
1787951953 19.44° C 64% 1002.5 hPa - - - -
1787951908 19.44° C 64% 1002.5 hPa - - - -
1787951805 20.56° C 63% 1002.2 hPa - - - -
1787949823 20.56° C 63% 1002.2 hPa - - - -
1787949704 21.11° C 61% 1002.1 hPa - - - -
1787947802 21.11° C 61% 1002.1 hPa - - - -
1787947777 21.11° C 67% 1002.5 hPa - - - -
1787947664 21.11° C 67% 1002.5 hPa - - - -
1787945822 21.11° C 67% 1002.5 hPa - - - -
1787945684 21.11° C 68% 1002.5 hPa - - - -
1787943896 21.11° C 68% 1002.5 hPa - - - -
1787943815 21.67° C 65% 1002.1 hPa - - - -
1787943704 21.67° C 65% 1002.1 hPa - - - -
1787941844 21.67° C 65% 1002.1 hPa - - - -
1787941604 22.78° C 65% 1002 hPa - - - -
1787939774 22.78° C 65% 1002 hPa - - - -

* Rain since midnight (hover to see other rain measurements)
** Current wind speed in m/s (hover to see current wind gust speed)